Home   Weather   Napa   Past weeks

Flag for USA Past Weather in Napa, California, USA — Yesterday and Last 2 Weeks

Now
65 °F

Sunny.


Feels Like: 65 °F
Forecast: 53 / 83 °F
Wind: 7 mph from South

Location: Napa County Airport

Current Time: Sep 28, 2016 at 11:51:05 AM

Latest Report: Sep 28, 2016 at 10:54 AM


Visibility: 10 mi

Pressure: 29.89 "Hg

Humidity: 70%

Dew Point: 55 °F

Location of NapaLocation

Past Weather in Napa — Graph

°F

Napa Temperature Yesterday

Maximum temperature yesterday: 90 °F (at 2:54 PM)
Minimum temperature yesterday: 54 °F (at 4:54 AM)
Average temperature yesterday: 69 °F

High & Low Weather Summary for the Past Weeks

 TemperatureHumidityPressure
High98 °F (Sep 25, 3:54 PM)97% (Sep 17, 3:54 AM)30.13 "Hg (Sep 17, 3:54 AM)
Low43 °F (Sep 23, 5:54 AM)12% (Sep 26, 3:54 PM)29.77 "Hg (Sep 27, 4:54 PM)
Average66 °F62%29.95 "Hg
* Reported Sep 13 9:54 AM — Sep 28 9:54 AM, Napa, Weather by CustomWeather, © 2016

Note: Actual official high and low records may vary slightly from our data, if they occured in-between our weather recording intervals... More about our weather records

Advertising

Napa Weather History for the Previous 24 Hours

Scroll right to see more
 ConditionsComfort  
Time TempWeatherWind HumidityBarometerVisibility
9:54 AM
Wed, Sep 28
64 °FSunny.5 mph70%29.88 "Hg10 mi
8:54 AM59 °FSunny.3 mph81%29.88 "Hg10 mi
7:54 AM53 °FSunny.No wind96%29.87 "Hg10 mi
6:54 AM50 °FFog.No wind93%29.85 "Hg10 mi
5:54 AM50 °FClear.3 mph89%29.83 "Hg10 mi
4:54 AM56 °FClear.No wind87%29.83 "Hg10 mi
3:54 AM56 °FClear.No wind87%29.82 "Hg10 mi
2:54 AM56 °FClear.5 mph90%29.83 "Hg10 mi
1:54 AM57 °FClear.6 mph83%29.83 "Hg10 mi
12:54 AM57 °FClear.7 mph87%29.83 "Hg10 mi
11:54 PM
Tue, Sep 27
60 °FClear.3 mph80%29.83 "Hg10 mi
10:54 PM62 °FClear.8 mph78%29.83 "Hg10 mi
9:54 PM64 °FClear.8 mph75%29.81 "Hg10 mi
8:54 PM66 °FClear.9 mph70%29.80 "Hg10 mi
7:54 PM69 °FClear.5 mph61%29.78 "Hg10 mi
6:54 PM72 °FSunny.6 mph57%29.77 "Hg10 mi
5:54 PM79 °FSunny.8 mph42%29.77 "Hg10 mi
4:54 PM84 °FSunny.8 mph32%29.77 "Hg10 mi
3:54 PM87 °FSunny.12 mph24%29.78 "Hg10 mi
2:54 PM90 °FSunny.10 mph17%29.80 "Hg10 mi
1:54 PM89 °FSunny.9 mph14%29.82 "Hg10 mi
11:54 AM82 °FSunny.5 mph32%29.87 "Hg10 mi
Weather by CustomWeather, © 2016

See weather overviewHow to use our weather pages